Weather in Vyvenka

Russia / Kamchatka Krai     60°11′08″N   165°27′41″E
temp.,
°C
wind,
m/s
gust,
m/s
humid.,
%
clouds,
%
prec.,
mm/h
press.,
hPa
HPBL,
m
28 february, sun
sun2800:00−28nne458427 0.0 102585
03:00−28nne4588100 0.0 1025100
06:00−26nne5696100 0.1 1024125
09:00−25nne679798 0.1 1024130
12:00−22nne679384 0.1 1022147
15:00−20nne689273 0.0 1020183
18:00−20nne6109087 0.0 1017206
21:00−20nne71089100 0.0 1016203
1 march, mon
mon100:00−21nne81389100 0.0 1010262
03:00−20nne92083100 0.0 1004409
06:00−20nne92178100 0.0 1001421
09:00−23n6996100 0.2 998249
12:00−23n6995100 0.6 996275
15:00−21n5792100 0.1 995317
18:00−22n5886100 0.1 996323
21:00−26n478782 0.0 998179
2 march, tue
tue200:00−27n449073 0.0 99987
03:00−26nnw349048 0.0 100263
06:00−26nnw338868 0.0 100442
09:00−24nnw338689 0.0 100880
12:00−21n348394 0.0 1010196
15:00−19n2382100 0.0 1013245
18:00−22nnw228889 0.0 101636
21:00−23nnw2387100 0.0 102032
3 march, wed
wed300:00−23nnw2288100 0.0 102335
03:00−22n2285100 0.0 102453
06:00−22nne1186100 0.0 102630
09:00−24ne119124 0.0 102825
12:00−21e118747 0.0 1028127
15:00−20ne349099 0.0 1025198
18:00−20ne5789100 0.0 1020161
21:00−19ene91699100 0.3 1014416
4 march, thu
thu400:00−7e132396100 4.7 10031071
03:000se182698100 7.7 9911072
06:000se182898100 17.1 9821167
09:00+1sse162699100 8.3 9751168
12:00−1sse91589100 13.3 973977
15:00−13nw81890100 1.1 976818
18:00−14w101976100 1.6 9831292
21:00−15wsw71578100 0.0 9891195